Index of /20260430/WXO-DD/model_gdps/15km/00/066
Name Last modified Size Description
Parent Directory -
20260430T00Z_MSC_GDPS_AbsoluteVorticity_IsbL-0200_LatLon0.15_PT066H.grib2 2026-04-30 04:16 1.5M
20260430T00Z_MSC_GDPS_AbsoluteVorticity_IsbL-0250_LatLon0.15_PT066H.grib2 2026-04-30 04:16 1.6M
20260430T00Z_MSC_GDPS_AbsoluteVorticity_IsbL-0500_LatLon0.15_PT066H.grib2 2026-04-30 04:16 1.5M
20260430T00Z_MSC_GDPS_AbsoluteVorticity_IsbL-0700_LatLon0.15_PT066H.grib2 2026-04-30 04:16 1.3M
20260430T00Z_MSC_GDPS_AbsoluteVorticity_IsbL-0850_LatLon0.15_PT066H.grib2 2026-04-30 04:16 1.6M
20260430T00Z_MSC_GDPS_AirTemp-Max_AGL-2m_LatLon0.15_PT066H.grib2 2026-04-30 04:16 746K
20260430T00Z_MSC_GDPS_AirTemp-Min_AGL-2m_LatLon0.15_PT066H.grib2 2026-04-30 04:16 791K
20260430T00Z_MSC_GDPS_AirTemp_AGL-120m_LatLon0.15_PT066H.grib2 2026-04-30 04:16 908K
20260430T00Z_MSC_GDPS_AirTemp_AGL-2m_LatLon0.15_PT066H.grib2 2026-04-30 04:16 1.0M
20260430T00Z_MSC_GDPS_AirTemp_AGL-40m_LatLon0.15_PT066H.grib2 2026-04-30 04:16 813K
20260430T00Z_MSC_GDPS_AirTemp_AGL-80m_LatLon0.15_PT066H.grib2 2026-04-30 04:16 801K
20260430T00Z_MSC_GDPS_AirTemp_IsbL-0001_LatLon0.15_PT066H.grib2 2026-04-30 04:16 654K
20260430T00Z_MSC_GDPS_AirTemp_IsbL-0005_LatLon0.15_PT066H.grib2 2026-04-30 04:16 683K
20260430T00Z_MSC_GDPS_AirTemp_IsbL-0010_LatLon0.15_PT066H.grib2 2026-04-30 04:16 757K
20260430T00Z_MSC_GDPS_AirTemp_IsbL-0020_LatLon0.15_PT066H.grib2 2026-04-30 04:16 783K
20260430T00Z_MSC_GDPS_AirTemp_IsbL-0030_LatLon0.15_PT066H.grib2 2026-04-30 04:16 752K
20260430T00Z_MSC_GDPS_AirTemp_IsbL-0050_LatLon0.15_PT066H.grib2 2026-04-30 04:16 807K
20260430T00Z_MSC_GDPS_AirTemp_IsbL-0100_LatLon0.15_PT066H.grib2 2026-04-30 04:16 967K
20260430T00Z_MSC_GDPS_AirTemp_IsbL-0150_LatLon0.15_PT066H.grib2 2026-04-30 04:16 1.0M
20260430T00Z_MSC_GDPS_AirTemp_IsbL-0175_LatLon0.15_PT066H.grib2 2026-04-30 04:16 964K
20260430T00Z_MSC_GDPS_AirTemp_IsbL-0200_LatLon0.15_PT066H.grib2 2026-04-30 04:16 1.0M
20260430T00Z_MSC_GDPS_AirTemp_IsbL-0225_LatLon0.15_PT066H.grib2 2026-04-30 04:16 1.0M
20260430T00Z_MSC_GDPS_AirTemp_IsbL-0250_LatLon0.15_PT066H.grib2 2026-04-30 04:16 1.0M
20260430T00Z_MSC_GDPS_AirTemp_IsbL-0275_LatLon0.15_PT066H.grib2 2026-04-30 04:16 1.0M
20260430T00Z_MSC_GDPS_AirTemp_IsbL-0300_LatLon0.15_PT066H.grib2 2026-04-30 04:16 1.0M
20260430T00Z_MSC_GDPS_AirTemp_IsbL-0350_LatLon0.15_PT066H.grib2 2026-04-30 04:16 927K
20260430T00Z_MSC_GDPS_AirTemp_IsbL-0400_LatLon0.15_PT066H.grib2 2026-04-30 04:16 941K
20260430T00Z_MSC_GDPS_AirTemp_IsbL-0450_LatLon0.15_PT066H.grib2 2026-04-30 04:16 965K
20260430T00Z_MSC_GDPS_AirTemp_IsbL-0500_LatLon0.15_PT066H.grib2 2026-04-30 04:16 1.0M
20260430T00Z_MSC_GDPS_AirTemp_IsbL-0550_LatLon0.15_PT066H.grib2 2026-04-30 04:16 805K
20260430T00Z_MSC_GDPS_AirTemp_IsbL-0600_LatLon0.15_PT066H.grib2 2026-04-30 04:16 898K
20260430T00Z_MSC_GDPS_AirTemp_IsbL-0650_LatLon0.15_PT066H.grib2 2026-04-30 04:16 924K
20260430T00Z_MSC_GDPS_AirTemp_IsbL-0700_LatLon0.15_PT066H.grib2 2026-04-30 04:16 958K
20260430T00Z_MSC_GDPS_AirTemp_IsbL-0750_LatLon0.15_PT066H.grib2 2026-04-30 04:16 1.0M
20260430T00Z_MSC_GDPS_AirTemp_IsbL-0800_LatLon0.15_PT066H.grib2 2026-04-30 04:16 1.1M
20260430T00Z_MSC_GDPS_AirTemp_IsbL-0850_LatLon0.15_PT066H.grib2 2026-04-30 04:16 1.1M
20260430T00Z_MSC_GDPS_AirTemp_IsbL-0875_LatLon0.15_PT066H.grib2 2026-04-30 04:16 1.2M
20260430T00Z_MSC_GDPS_AirTemp_IsbL-0900_LatLon0.15_PT066H.grib2 2026-04-30 04:16 1.1M
20260430T00Z_MSC_GDPS_AirTemp_IsbL-0925_LatLon0.15_PT066H.grib2 2026-04-30 04:16 1.1M
20260430T00Z_MSC_GDPS_AirTemp_IsbL-0950_LatLon0.15_PT066H.grib2 2026-04-30 04:16 1.1M
20260430T00Z_MSC_GDPS_AirTemp_IsbL-0970_LatLon0.15_PT066H.grib2 2026-04-30 04:16 1.2M
20260430T00Z_MSC_GDPS_AirTemp_IsbL-0985_LatLon0.15_PT066H.grib2 2026-04-30 04:16 1.1M
20260430T00Z_MSC_GDPS_AirTemp_IsbL-1000_LatLon0.15_PT066H.grib2 2026-04-30 04:16 1.1M
20260430T00Z_MSC_GDPS_AirTemp_IsbL-1015_LatLon0.15_PT066H.grib2 2026-04-30 04:16 1.1M
20260430T00Z_MSC_GDPS_Albedo_Sfc_LatLon0.15_PT066H.grib2 2026-04-30 04:16 245K
20260430T00Z_MSC_GDPS_CAPE_Sfc_LatLon0.15_PT066H.grib2 2026-04-30 04:16 3.8M
20260430T00Z_MSC_GDPS_CIN_Sfc_LatLon0.15_PT066H.grib2 2026-04-30 04:16 2.9M
20260430T00Z_MSC_GDPS_CloudWater_EAtm_LatLon0.15_PT066H.grib2 2026-04-30 04:16 536K
20260430T00Z_MSC_GDPS_ConvectivePrecip-Accum_Sfc_LatLon0.15_PT066H.grib2 2026-04-30 04:16 3.2M
20260430T00Z_MSC_GDPS_DewPointDepression_AGL-2m_LatLon0.15_PT066H.grib2 2026-04-30 04:16 767K
20260430T00Z_MSC_GDPS_DewPointDepression_IsbL-0010_LatLon0.15_PT066H.grib2 2026-04-30 04:16 63K
20260430T00Z_MSC_GDPS_DewPointDepression_IsbL-0020_LatLon0.15_PT066H.grib2 2026-04-30 04:16 65K
20260430T00Z_MSC_GDPS_DewPointDepression_IsbL-0030_LatLon0.15_PT066H.grib2 2026-04-30 04:16 81K
20260430T00Z_MSC_GDPS_DewPointDepression_IsbL-0050_LatLon0.15_PT066H.grib2 2026-04-30 04:16 374K
20260430T00Z_MSC_GDPS_DewPointDepression_IsbL-0100_LatLon0.15_PT066H.grib2 2026-04-30 04:16 415K
20260430T00Z_MSC_GDPS_DewPointDepression_IsbL-0150_LatLon0.15_PT066H.grib2 2026-04-30 04:16 470K
20260430T00Z_MSC_GDPS_DewPointDepression_IsbL-0175_LatLon0.15_PT066H.grib2 2026-04-30 04:16 575K
20260430T00Z_MSC_GDPS_DewPointDepression_IsbL-0200_LatLon0.15_PT066H.grib2 2026-04-30 04:16 681K
20260430T00Z_MSC_GDPS_DewPointDepression_IsbL-0225_LatLon0.15_PT066H.grib2 2026-04-30 04:16 778K
20260430T00Z_MSC_GDPS_DewPointDepression_IsbL-0250_LatLon0.15_PT066H.grib2 2026-04-30 04:16 857K
20260430T00Z_MSC_GDPS_DewPointDepression_IsbL-0275_LatLon0.15_PT066H.grib2 2026-04-30 04:16 876K
20260430T00Z_MSC_GDPS_DewPointDepression_IsbL-0300_LatLon0.15_PT066H.grib2 2026-04-30 04:16 914K
20260430T00Z_MSC_GDPS_DewPointDepression_IsbL-0350_LatLon0.15_PT066H.grib2 2026-04-30 04:16 945K
20260430T00Z_MSC_GDPS_DewPointDepression_IsbL-0400_LatLon0.15_PT066H.grib2 2026-04-30 04:16 1.0M
20260430T00Z_MSC_GDPS_DewPointDepression_IsbL-0450_LatLon0.15_PT066H.grib2 2026-04-30 04:16 1.0M
20260430T00Z_MSC_GDPS_DewPointDepression_IsbL-0500_LatLon0.15_PT066H.grib2 2026-04-30 04:16 1.0M
20260430T00Z_MSC_GDPS_DewPointDepression_IsbL-0550_LatLon0.15_PT066H.grib2 2026-04-30 04:16 1.0M
20260430T00Z_MSC_GDPS_DewPointDepression_IsbL-0600_LatLon0.15_PT066H.grib2 2026-04-30 04:16 1.0M
20260430T00Z_MSC_GDPS_DewPointDepression_IsbL-0650_LatLon0.15_PT066H.grib2 2026-04-30 04:16 1.1M
20260430T00Z_MSC_GDPS_DewPointDepression_IsbL-0700_LatLon0.15_PT066H.grib2 2026-04-30 04:16 1.1M
20260430T00Z_MSC_GDPS_DewPointDepression_IsbL-0750_LatLon0.15_PT066H.grib2 2026-04-30 04:16 1.1M
20260430T00Z_MSC_GDPS_DewPointDepression_IsbL-0800_LatLon0.15_PT066H.grib2 2026-04-30 04:16 1.2M
20260430T00Z_MSC_GDPS_DewPointDepression_IsbL-0850_LatLon0.15_PT066H.grib2 2026-04-30 04:16 1.2M
20260430T00Z_MSC_GDPS_DewPointDepression_IsbL-0875_LatLon0.15_PT066H.grib2 2026-04-30 04:16 1.1M
20260430T00Z_MSC_GDPS_DewPointDepression_IsbL-0900_LatLon0.15_PT066H.grib2 2026-04-30 04:16 1.1M
20260430T00Z_MSC_GDPS_DewPointDepression_IsbL-0925_LatLon0.15_PT066H.grib2 2026-04-30 04:16 1.0M
20260430T00Z_MSC_GDPS_DewPointDepression_IsbL-0950_LatLon0.15_PT066H.grib2 2026-04-30 04:16 1.0M
20260430T00Z_MSC_GDPS_DewPointDepression_IsbL-0970_LatLon0.15_PT066H.grib2 2026-04-30 04:16 1.0M
20260430T00Z_MSC_GDPS_DewPointDepression_IsbL-0985_LatLon0.15_PT066H.grib2 2026-04-30 04:16 1.0M
20260430T00Z_MSC_GDPS_DewPointDepression_IsbL-1000_LatLon0.15_PT066H.grib2 2026-04-30 04:16 1.0M
20260430T00Z_MSC_GDPS_DewPointDepression_IsbL-1015_LatLon0.15_PT066H.grib2 2026-04-30 04:16 922K
20260430T00Z_MSC_GDPS_DewPoint_AGL-2m_LatLon0.15_PT066H.grib2 2026-04-30 04:16 611K
20260430T00Z_MSC_GDPS_DownwardLongwaveRadiationFlux-Accum_Sfc_LatLon0.15_PT066H.grib2 2026-04-30 04:16 892K
20260430T00Z_MSC_GDPS_DownwardShortwaveRadiationFlux-Accum_NTAtm_LatLon0.15_PT066H.grib2 2026-04-30 04:16 204K
20260430T00Z_MSC_GDPS_DownwardShortwaveRadiationFlux-Accum_Sfc_LatLon0.15_PT066H.grib2 2026-04-30 04:16 1.1M
20260430T00Z_MSC_GDPS_FreezingRain-Accum12h_Sfc_LatLon0.15_PT066H.grib2 2026-04-30 04:16 109K
20260430T00Z_MSC_GDPS_FreezingRain-Accum1h_Sfc_LatLon0.15_PT066H.grib2 2026-04-30 04:16 37K
20260430T00Z_MSC_GDPS_FreezingRain-Accum24h_Sfc_LatLon0.15_PT066H.grib2 2026-04-30 04:16 160K
20260430T00Z_MSC_GDPS_FreezingRain-Accum3h_Sfc_LatLon0.15_PT066H.grib2 2026-04-30 04:16 50K
20260430T00Z_MSC_GDPS_FreezingRain-Accum6h_Sfc_LatLon0.15_PT066H.grib2 2026-04-30 04:16 85K
20260430T00Z_MSC_GDPS_FreezingRain-Accum_Sfc_LatLon0.15_PT066H.grib2 2026-04-30 04:16 306K
20260430T00Z_MSC_GDPS_GeopotentialHeight_IsbL-0001_LatLon0.15_PT066H.grib2 2026-04-30 04:16 426K
20260430T00Z_MSC_GDPS_GeopotentialHeight_IsbL-0005_LatLon0.15_PT066H.grib2 2026-04-30 04:16 494K
20260430T00Z_MSC_GDPS_GeopotentialHeight_IsbL-0010_LatLon0.15_PT066H.grib2 2026-04-30 04:16 488K
20260430T00Z_MSC_GDPS_GeopotentialHeight_IsbL-0020_LatLon0.15_PT066H.grib2 2026-04-30 04:16 414K
20260430T00Z_MSC_GDPS_GeopotentialHeight_IsbL-0030_LatLon0.15_PT066H.grib2 2026-04-30 04:16 570K
20260430T00Z_MSC_GDPS_GeopotentialHeight_IsbL-0050_LatLon0.15_PT066H.grib2 2026-04-30 04:16 569K
20260430T00Z_MSC_GDPS_GeopotentialHeight_IsbL-0100_LatLon0.15_PT066H.grib2 2026-04-30 04:16 614K
20260430T00Z_MSC_GDPS_GeopotentialHeight_IsbL-0150_LatLon0.15_PT066H.grib2 2026-04-30 04:16 632K
20260430T00Z_MSC_GDPS_GeopotentialHeight_IsbL-0175_LatLon0.15_PT066H.grib2 2026-04-30 04:16 636K
20260430T00Z_MSC_GDPS_GeopotentialHeight_IsbL-0200_LatLon0.15_PT066H.grib2 2026-04-30 04:16 640K
20260430T00Z_MSC_GDPS_GeopotentialHeight_IsbL-0225_LatLon0.15_PT066H.grib2 2026-04-30 04:16 637K
20260430T00Z_MSC_GDPS_GeopotentialHeight_IsbL-0250_LatLon0.15_PT066H.grib2 2026-04-30 04:16 645K
20260430T00Z_MSC_GDPS_GeopotentialHeight_IsbL-0275_LatLon0.15_PT066H.grib2 2026-04-30 04:16 643K
20260430T00Z_MSC_GDPS_GeopotentialHeight_IsbL-0300_LatLon0.15_PT066H.grib2 2026-04-30 04:16 642K
20260430T00Z_MSC_GDPS_GeopotentialHeight_IsbL-0350_LatLon0.15_PT066H.grib2 2026-04-30 04:16 630K
20260430T00Z_MSC_GDPS_GeopotentialHeight_IsbL-0400_LatLon0.15_PT066H.grib2 2026-04-30 04:16 622K
20260430T00Z_MSC_GDPS_GeopotentialHeight_IsbL-0450_LatLon0.15_PT066H.grib2 2026-04-30 04:16 613K
20260430T00Z_MSC_GDPS_GeopotentialHeight_IsbL-0500_LatLon0.15_PT066H.grib2 2026-04-30 04:16 536K
20260430T00Z_MSC_GDPS_GeopotentialHeight_IsbL-0550_LatLon0.15_PT066H.grib2 2026-04-30 04:16 527K
20260430T00Z_MSC_GDPS_GeopotentialHeight_IsbL-0600_LatLon0.15_PT066H.grib2 2026-04-30 04:16 524K
20260430T00Z_MSC_GDPS_GeopotentialHeight_IsbL-0650_LatLon0.15_PT066H.grib2 2026-04-30 04:16 692K
20260430T00Z_MSC_GDPS_GeopotentialHeight_IsbL-0700_LatLon0.15_PT066H.grib2 2026-04-30 04:16 692K
20260430T00Z_MSC_GDPS_GeopotentialHeight_IsbL-0750_LatLon0.15_PT066H.grib2 2026-04-30 04:16 699K
20260430T00Z_MSC_GDPS_GeopotentialHeight_IsbL-0800_LatLon0.15_PT066H.grib2 2026-04-30 04:16 708K
20260430T00Z_MSC_GDPS_GeopotentialHeight_IsbL-0850_LatLon0.15_PT066H.grib2 2026-04-30 04:16 718K
20260430T00Z_MSC_GDPS_GeopotentialHeight_IsbL-0875_LatLon0.15_PT066H.grib2 2026-04-30 04:16 717K
20260430T00Z_MSC_GDPS_GeopotentialHeight_IsbL-0900_LatLon0.15_PT066H.grib2 2026-04-30 04:16 726K
20260430T00Z_MSC_GDPS_GeopotentialHeight_IsbL-0925_LatLon0.15_PT066H.grib2 2026-04-30 04:16 737K
20260430T00Z_MSC_GDPS_GeopotentialHeight_IsbL-0950_LatLon0.15_PT066H.grib2 2026-04-30 04:16 743K
20260430T00Z_MSC_GDPS_GeopotentialHeight_IsbL-0970_LatLon0.15_PT066H.grib2 2026-04-30 04:16 756K
20260430T00Z_MSC_GDPS_GeopotentialHeight_IsbL-0985_LatLon0.15_PT066H.grib2 2026-04-30 04:16 771K
20260430T00Z_MSC_GDPS_GeopotentialHeight_IsbL-1000_LatLon0.15_PT066H.grib2 2026-04-30 04:16 793K
20260430T00Z_MSC_GDPS_GeopotentialHeight_IsbL-1015_LatLon0.15_PT066H.grib2 2026-04-30 04:16 813K
20260430T00Z_MSC_GDPS_Humidex_Sfc_LatLon0.15_PT066H.grib2 2026-04-30 04:16 5.3M
20260430T00Z_MSC_GDPS_IcePellets-Accum12h_Sfc_LatLon0.15_PT066H.grib2 2026-04-30 04:16 17K
20260430T00Z_MSC_GDPS_IcePellets-Accum1h_Sfc_LatLon0.15_PT066H.grib2 2026-04-30 04:16 7.0K
20260430T00Z_MSC_GDPS_IcePellets-Accum24h_Sfc_LatLon0.15_PT066H.grib2 2026-04-30 04:16 29K
20260430T00Z_MSC_GDPS_IcePellets-Accum3h_Sfc_LatLon0.15_PT066H.grib2 2026-04-30 04:16 10K
20260430T00Z_MSC_GDPS_IcePellets-Accum6h_Sfc_LatLon0.15_PT066H.grib2 2026-04-30 04:16 15K
20260430T00Z_MSC_GDPS_IcePellets-Accum_Sfc_LatLon0.15_PT066H.grib2 2026-04-30 04:16 70K
20260430T00Z_MSC_GDPS_KIndex_Sfc_LatLon0.15_PT066H.grib2 2026-04-30 04:16 6.5M
20260430T00Z_MSC_GDPS_LatentHeatNetFlux_Sfc_LatLon0.15_PT066H.grib2 2026-04-30 04:16 519K
20260430T00Z_MSC_GDPS_LiftedIndex-MU-VT_IsbL-0500_LatLon0.15_PT066H.grib2 2026-04-30 04:16 5.4M
20260430T00Z_MSC_GDPS_NetLongwaveRadiationFlux-Accum_Sfc_LatLon0.15_PT066H.grib2 2026-04-30 04:16 952K
20260430T00Z_MSC_GDPS_NetShortwaveRadiationFlux-Accum_Sfc_LatLon0.15_PT066H.grib2 2026-04-30 04:16 1.1M
20260430T00Z_MSC_GDPS_O3MixingRatio_Sfc_LatLon0.15_PT066H.grib2 2026-04-30 04:50 1.9M
20260430T00Z_MSC_GDPS_O3_EAtm_LatLon0.15_PT066H.grib2 2026-04-30 04:50 2.5M
20260430T00Z_MSC_GDPS_PlanetaryBoundaryLayerHeight_Sfc_LatLon0.15_PT066H.grib2 2026-04-30 04:16 2.4M
20260430T00Z_MSC_GDPS_Precip-Accum12h_Sfc_LatLon0.15_PT066H.grib2 2026-04-30 04:16 4.0M
20260430T00Z_MSC_GDPS_Precip-Accum1h_Sfc_LatLon0.15_PT066H.grib2 2026-04-30 04:16 3.2M
20260430T00Z_MSC_GDPS_Precip-Accum24h_Sfc_LatLon0.15_PT066H.grib2 2026-04-30 04:16 4.5M
20260430T00Z_MSC_GDPS_Precip-Accum3h_Sfc_LatLon0.15_PT066H.grib2 2026-04-30 04:16 3.5M
20260430T00Z_MSC_GDPS_Precip-Accum6h_Sfc_LatLon0.15_PT066H.grib2 2026-04-30 04:16 3.6M
20260430T00Z_MSC_GDPS_Precip-Accum_Sfc_LatLon0.15_PT066H.grib2 2026-04-30 04:16 5.1M
20260430T00Z_MSC_GDPS_PrecipRate_Sfc_LatLon0.15_PT066H.grib2 2026-04-30 04:16 3.0M
20260430T00Z_MSC_GDPS_PrecipType-Instant_Sfc_LatLon0.15_PT066H.grib2 2026-04-30 04:16 1.6M
20260430T00Z_MSC_GDPS_Pressure_MSL_LatLon0.15_PT066H.grib2 2026-04-30 04:16 843K
20260430T00Z_MSC_GDPS_Pressure_PVU-1.5_LatLon0.15_PT066H.grib2 2026-04-30 04:16 5.8M
20260430T00Z_MSC_GDPS_Pressure_PVU-1_LatLon0.15_PT066H.grib2 2026-04-30 04:16 6.0M
20260430T00Z_MSC_GDPS_Pressure_PVU-2_LatLon0.15_PT066H.grib2 2026-04-30 04:16 5.6M
20260430T00Z_MSC_GDPS_Pressure_Sfc_LatLon0.15_PT066H.grib2 2026-04-30 04:16 1.1M
20260430T00Z_MSC_GDPS_RadiativeTemp_Sfc_LatLon0.15_PT066H.grib2 2026-04-30 04:16 492K
20260430T00Z_MSC_GDPS_Rain-Accum12h_Sfc_LatLon0.15_PT066H.grib2 2026-04-30 04:16 2.7M
20260430T00Z_MSC_GDPS_Rain-Accum1h_Sfc_LatLon0.15_PT066H.grib2 2026-04-30 04:16 1.7M
20260430T00Z_MSC_GDPS_Rain-Accum24h_Sfc_LatLon0.15_PT066H.grib2 2026-04-30 04:16 3.2M
20260430T00Z_MSC_GDPS_Rain-Accum3h_Sfc_LatLon0.15_PT066H.grib2 2026-04-30 04:16 1.7M
20260430T00Z_MSC_GDPS_Rain-Accum6h_Sfc_LatLon0.15_PT066H.grib2 2026-04-30 04:16 2.3M
20260430T00Z_MSC_GDPS_Rain-Accum_Sfc_LatLon0.15_PT066H.grib2 2026-04-30 04:16 3.9M
20260430T00Z_MSC_GDPS_RelativeHumidity_AGL-2m_LatLon0.15_PT066H.grib2 2026-04-30 04:16 1.1M
20260430T00Z_MSC_GDPS_RelativeHumidity_IsbL-0010_LatLon0.15_PT066H.grib2 2026-04-30 04:16 200K
20260430T00Z_MSC_GDPS_RelativeHumidity_IsbL-0020_LatLon0.15_PT066H.grib2 2026-04-30 04:16 168K
20260430T00Z_MSC_GDPS_RelativeHumidity_IsbL-0030_LatLon0.15_PT066H.grib2 2026-04-30 04:16 267K
20260430T00Z_MSC_GDPS_RelativeHumidity_IsbL-0050_LatLon0.15_PT066H.grib2 2026-04-30 04:16 420K
20260430T00Z_MSC_GDPS_RelativeHumidity_IsbL-0100_LatLon0.15_PT066H.grib2 2026-04-30 04:16 511K
20260430T00Z_MSC_GDPS_RelativeHumidity_IsbL-0150_LatLon0.15_PT066H.grib2 2026-04-30 04:16 670K
20260430T00Z_MSC_GDPS_RelativeHumidity_IsbL-0175_LatLon0.15_PT066H.grib2 2026-04-30 04:16 591K
20260430T00Z_MSC_GDPS_RelativeHumidity_IsbL-0200_LatLon0.15_PT066H.grib2 2026-04-30 04:16 700K
20260430T00Z_MSC_GDPS_RelativeHumidity_IsbL-0225_LatLon0.15_PT066H.grib2 2026-04-30 04:16 790K
20260430T00Z_MSC_GDPS_RelativeHumidity_IsbL-0250_LatLon0.15_PT066H.grib2 2026-04-30 04:16 860K
20260430T00Z_MSC_GDPS_RelativeHumidity_IsbL-0275_LatLon0.15_PT066H.grib2 2026-04-30 04:16 882K
20260430T00Z_MSC_GDPS_RelativeHumidity_IsbL-0300_LatLon0.15_PT066H.grib2 2026-04-30 04:16 924K
20260430T00Z_MSC_GDPS_RelativeHumidity_IsbL-0350_LatLon0.15_PT066H.grib2 2026-04-30 04:16 946K
20260430T00Z_MSC_GDPS_RelativeHumidity_IsbL-0400_LatLon0.15_PT066H.grib2 2026-04-30 04:16 972K
20260430T00Z_MSC_GDPS_RelativeHumidity_IsbL-0450_LatLon0.15_PT066H.grib2 2026-04-30 04:16 1.0M
20260430T00Z_MSC_GDPS_RelativeHumidity_IsbL-0500_LatLon0.15_PT066H.grib2 2026-04-30 04:16 1.0M
20260430T00Z_MSC_GDPS_RelativeHumidity_IsbL-0550_LatLon0.15_PT066H.grib2 2026-04-30 04:16 1.0M
20260430T00Z_MSC_GDPS_RelativeHumidity_IsbL-0600_LatLon0.15_PT066H.grib2 2026-04-30 04:16 1.1M
20260430T00Z_MSC_GDPS_RelativeHumidity_IsbL-0650_LatLon0.15_PT066H.grib2 2026-04-30 04:16 1.1M
20260430T00Z_MSC_GDPS_RelativeHumidity_IsbL-0700_LatLon0.15_PT066H.grib2 2026-04-30 04:16 1.1M
20260430T00Z_MSC_GDPS_RelativeHumidity_IsbL-0750_LatLon0.15_PT066H.grib2 2026-04-30 04:16 1.2M
20260430T00Z_MSC_GDPS_RelativeHumidity_IsbL-0800_LatLon0.15_PT066H.grib2 2026-04-30 04:16 1.3M
20260430T00Z_MSC_GDPS_RelativeHumidity_IsbL-0850_LatLon0.15_PT066H.grib2 2026-04-30 04:16 1.3M
20260430T00Z_MSC_GDPS_RelativeHumidity_IsbL-0875_LatLon0.15_PT066H.grib2 2026-04-30 04:16 1.3M
20260430T00Z_MSC_GDPS_RelativeHumidity_IsbL-0900_LatLon0.15_PT066H.grib2 2026-04-30 04:16 1.3M
20260430T00Z_MSC_GDPS_RelativeHumidity_IsbL-0925_LatLon0.15_PT066H.grib2 2026-04-30 04:16 1.2M
20260430T00Z_MSC_GDPS_RelativeHumidity_IsbL-0950_LatLon0.15_PT066H.grib2 2026-04-30 04:16 1.2M
20260430T00Z_MSC_GDPS_RelativeHumidity_IsbL-0970_LatLon0.15_PT066H.grib2 2026-04-30 04:16 1.2M
20260430T00Z_MSC_GDPS_RelativeHumidity_IsbL-0985_LatLon0.15_PT066H.grib2 2026-04-30 04:16 1.2M
20260430T00Z_MSC_GDPS_RelativeHumidity_IsbL-1000_LatLon0.15_PT066H.grib2 2026-04-30 04:16 1.1M
20260430T00Z_MSC_GDPS_RelativeHumidity_IsbL-1015_LatLon0.15_PT066H.grib2 2026-04-30 04:16 1.1M
20260430T00Z_MSC_GDPS_RelativeVorticity_IsbL-0200_LatLon0.15_PT066H.grib2 2026-04-30 04:16 1.5M
20260430T00Z_MSC_GDPS_RelativeVorticity_IsbL-0250_LatLon0.15_PT066H.grib2 2026-04-30 04:16 1.6M
20260430T00Z_MSC_GDPS_RelativeVorticity_IsbL-0500_LatLon0.15_PT066H.grib2 2026-04-30 04:16 1.5M
20260430T00Z_MSC_GDPS_RelativeVorticity_IsbL-0700_LatLon0.15_PT066H.grib2 2026-04-30 04:16 1.3M
20260430T00Z_MSC_GDPS_RelativeVorticity_IsbL-0850_LatLon0.15_PT066H.grib2 2026-04-30 04:16 1.6M
20260430T00Z_MSC_GDPS_Runoff-Accum_Sfc_LatLon0.15_PT066H.grib2 2026-04-30 04:16 146K
20260430T00Z_MSC_GDPS_SensibleHeatNetFlux_Sfc_LatLon0.15_PT066H.grib2 2026-04-30 04:16 630K
20260430T00Z_MSC_GDPS_ShowalterIndex_IsbL-0500_LatLon0.15_PT066H.grib2 2026-04-30 04:16 6.2M
20260430T00Z_MSC_GDPS_Snow-Accum12h_Sfc_LatLon0.15_PT066H.grib2 2026-04-30 04:16 1.4M
20260430T00Z_MSC_GDPS_Snow-Accum1h_Sfc_LatLon0.15_PT066H.grib2 2026-04-30 04:16 1.3M
20260430T00Z_MSC_GDPS_Snow-Accum24h_Sfc_LatLon0.15_PT066H.grib2 2026-04-30 04:16 1.6M
20260430T00Z_MSC_GDPS_Snow-Accum3h_Sfc_LatLon0.15_PT066H.grib2 2026-04-30 04:16 1.2M
20260430T00Z_MSC_GDPS_Snow-Accum6h_Sfc_LatLon0.15_PT066H.grib2 2026-04-30 04:16 1.5M
20260430T00Z_MSC_GDPS_Snow-Accum_Sfc_LatLon0.15_PT066H.grib2 2026-04-30 04:16 2.0M
20260430T00Z_MSC_GDPS_SnowDensity_Sfc_LatLon0.15_PT066H.grib2 2026-04-30 04:16 266K
20260430T00Z_MSC_GDPS_SnowDepth_Sfc_LatLon0.15_PT066H.grib2 2026-04-30 04:16 1.7M
20260430T00Z_MSC_GDPS_SoilTemp_DBS-0to10cm_LatLon0.15_PT066H.grib2 2026-04-30 04:16 508K
20260430T00Z_MSC_GDPS_SoilTemp_Sfc_LatLon0.15_PT066H.grib2 2026-04-30 04:16 577K
20260430T00Z_MSC_GDPS_SoilVolumetricIceContent_Sfc_LatLon0.15_PT066H.grib2 2026-04-30 04:16 201K
20260430T00Z_MSC_GDPS_SoilVolumetricWaterContent_DBS-0to10cm_LatLon0.15_PT066H.grib2 2026-04-30 04:16 587K
20260430T00Z_MSC_GDPS_SoilVolumetricWaterContent_DBS-0to1cm_LatLon0.15_PT066H.grib2 2026-04-30 04:16 651K
20260430T00Z_MSC_GDPS_SpecificHumidity_AGL-120m_LatLon0.15_PT066H.grib2 2026-04-30 04:16 1.1M
20260430T00Z_MSC_GDPS_SpecificHumidity_AGL-2m_LatLon0.15_PT066H.grib2 2026-04-30 04:16 1.2M
20260430T00Z_MSC_GDPS_SpecificHumidity_AGL-40m_LatLon0.15_PT066H.grib2 2026-04-30 04:16 1.1M
20260430T00Z_MSC_GDPS_SpecificHumidity_AGL-80m_LatLon0.15_PT066H.grib2 2026-04-30 04:16 1.1M
20260430T00Z_MSC_GDPS_SpecificHumidity_IsbL-0001_LatLon0.15_PT066H.grib2 2026-04-30 04:16 1.3M
20260430T00Z_MSC_GDPS_SpecificHumidity_IsbL-0005_LatLon0.15_PT066H.grib2 2026-04-30 04:16 1.2M
20260430T00Z_MSC_GDPS_SpecificHumidity_IsbL-0010_LatLon0.15_PT066H.grib2 2026-04-30 04:16 1.3M
20260430T00Z_MSC_GDPS_SpecificHumidity_IsbL-0020_LatLon0.15_PT066H.grib2 2026-04-30 04:16 1.4M
20260430T00Z_MSC_GDPS_SpecificHumidity_IsbL-0030_LatLon0.15_PT066H.grib2 2026-04-30 04:16 1.3M
20260430T00Z_MSC_GDPS_SpecificHumidity_IsbL-0050_LatLon0.15_PT066H.grib2 2026-04-30 04:16 1.3M
20260430T00Z_MSC_GDPS_SpecificHumidity_IsbL-0100_LatLon0.15_PT066H.grib2 2026-04-30 04:16 1.4M
20260430T00Z_MSC_GDPS_SpecificHumidity_IsbL-0150_LatLon0.15_PT066H.grib2 2026-04-30 04:16 1.3M
20260430T00Z_MSC_GDPS_SpecificHumidity_IsbL-0175_LatLon0.15_PT066H.grib2 2026-04-30 04:16 1.2M
20260430T00Z_MSC_GDPS_SpecificHumidity_IsbL-0200_LatLon0.15_PT066H.grib2 2026-04-30 04:16 1.3M
20260430T00Z_MSC_GDPS_SpecificHumidity_IsbL-0225_LatLon0.15_PT066H.grib2 2026-04-30 04:16 1.3M
20260430T00Z_MSC_GDPS_SpecificHumidity_IsbL-0250_LatLon0.15_PT066H.grib2 2026-04-30 04:16 1.4M
20260430T00Z_MSC_GDPS_SpecificHumidity_IsbL-0275_LatLon0.15_PT066H.grib2 2026-04-30 04:16 1.3M
20260430T00Z_MSC_GDPS_SpecificHumidity_IsbL-0300_LatLon0.15_PT066H.grib2 2026-04-30 04:16 1.2M
20260430T00Z_MSC_GDPS_SpecificHumidity_IsbL-0350_LatLon0.15_PT066H.grib2 2026-04-30 04:16 1.2M
20260430T00Z_MSC_GDPS_SpecificHumidity_IsbL-0400_LatLon0.15_PT066H.grib2 2026-04-30 04:16 1.5M
20260430T00Z_MSC_GDPS_SpecificHumidity_IsbL-0450_LatLon0.15_PT066H.grib2 2026-04-30 04:16 1.3M
20260430T00Z_MSC_GDPS_SpecificHumidity_IsbL-0500_LatLon0.15_PT066H.grib2 2026-04-30 04:16 1.4M
20260430T00Z_MSC_GDPS_SpecificHumidity_IsbL-0550_LatLon0.15_PT066H.grib2 2026-04-30 04:16 1.6M
20260430T00Z_MSC_GDPS_SpecificHumidity_IsbL-0600_LatLon0.15_PT066H.grib2 2026-04-30 04:16 1.7M
20260430T00Z_MSC_GDPS_SpecificHumidity_IsbL-0650_LatLon0.15_PT066H.grib2 2026-04-30 04:16 1.5M
20260430T00Z_MSC_GDPS_SpecificHumidity_IsbL-0700_LatLon0.15_PT066H.grib2 2026-04-30 04:16 1.6M
20260430T00Z_MSC_GDPS_SpecificHumidity_IsbL-0750_LatLon0.15_PT066H.grib2 2026-04-30 04:16 1.7M
20260430T00Z_MSC_GDPS_SpecificHumidity_IsbL-0800_LatLon0.15_PT066H.grib2 2026-04-30 04:16 1.9M
20260430T00Z_MSC_GDPS_SpecificHumidity_IsbL-0850_LatLon0.15_PT066H.grib2 2026-04-30 04:16 1.9M
20260430T00Z_MSC_GDPS_SpecificHumidity_IsbL-0875_LatLon0.15_PT066H.grib2 2026-04-30 04:16 1.9M
20260430T00Z_MSC_GDPS_SpecificHumidity_IsbL-0900_LatLon0.15_PT066H.grib2 2026-04-30 04:16 1.9M
20260430T00Z_MSC_GDPS_SpecificHumidity_IsbL-0925_LatLon0.15_PT066H.grib2 2026-04-30 04:16 1.6M
20260430T00Z_MSC_GDPS_SpecificHumidity_IsbL-0950_LatLon0.15_PT066H.grib2 2026-04-30 04:16 1.6M
20260430T00Z_MSC_GDPS_SpecificHumidity_IsbL-0970_LatLon0.15_PT066H.grib2 2026-04-30 04:16 1.5M
20260430T00Z_MSC_GDPS_SpecificHumidity_IsbL-0985_LatLon0.15_PT066H.grib2 2026-04-30 04:16 1.5M
20260430T00Z_MSC_GDPS_SpecificHumidity_IsbL-1000_LatLon0.15_PT066H.grib2 2026-04-30 04:16 1.5M
20260430T00Z_MSC_GDPS_SpecificHumidity_IsbL-1015_LatLon0.15_PT066H.grib2 2026-04-30 04:16 1.5M
20260430T00Z_MSC_GDPS_SpecificHumidity_Sfc_LatLon0.15_PT066H.grib2 2026-04-30 04:16 667K
20260430T00Z_MSC_GDPS_Thickness_IsbL-0850to0700_LatLon0.15_PT066H.grib2 2026-04-30 04:16 468K
20260430T00Z_MSC_GDPS_Thickness_IsbL-1000to0500_LatLon0.15_PT066H.grib2 2026-04-30 04:16 374K
20260430T00Z_MSC_GDPS_Thickness_IsbL-1000to0850_LatLon0.15_PT066H.grib2 2026-04-30 04:16 492K
20260430T00Z_MSC_GDPS_TotalCloudCover_Sfc_LatLon0.15_PT066H.grib2 2026-04-30 04:16 826K
20260430T00Z_MSC_GDPS_TotalTotalsIndex_Sfc_LatLon0.15_PT066H.grib2 2026-04-30 04:16 6.2M
20260430T00Z_MSC_GDPS_UVIndex-ClearSky-Max24h_Sfc_LatLon0.15_PT066H.grib2 2026-04-30 04:50 2.2M
20260430T00Z_MSC_GDPS_UVIndex-ClearSky_Sfc_LatLon0.15_PT066H.grib2 2026-04-30 04:50 1.0M
20260430T00Z_MSC_GDPS_UVIndex-Max24h_Sfc_LatLon0.15_PT066H.grib2 2026-04-30 04:50 3.2M
20260430T00Z_MSC_GDPS_UVIndex_Sfc_LatLon0.15_PT066H.grib2 2026-04-30 04:50 1.5M
20260430T00Z_MSC_GDPS_UpwardLongwaveRadiationFlux_NTAtm_LatLon0.15_PT066H.grib2 2026-04-30 04:16 841K
20260430T00Z_MSC_GDPS_VerticalVelocity_IsbL-0200_LatLon0.15_PT066H.grib2 2026-04-30 04:16 1.2M
20260430T00Z_MSC_GDPS_VerticalVelocity_IsbL-0250_LatLon0.15_PT066H.grib2 2026-04-30 04:16 1.0M
20260430T00Z_MSC_GDPS_VerticalVelocity_IsbL-0500_LatLon0.15_PT066H.grib2 2026-04-30 04:16 1.3M
20260430T00Z_MSC_GDPS_VerticalVelocity_IsbL-0600_LatLon0.15_PT066H.grib2 2026-04-30 04:16 1.4M
20260430T00Z_MSC_GDPS_VerticalVelocity_IsbL-0700_LatLon0.15_PT066H.grib2 2026-04-30 04:16 1.1M
20260430T00Z_MSC_GDPS_VerticalVelocity_IsbL-0850_LatLon0.15_PT066H.grib2 2026-04-30 04:16 1.3M
20260430T00Z_MSC_GDPS_WindChill_Sfc_LatLon0.15_PT066H.grib2 2026-04-30 04:16 5.3M
20260430T00Z_MSC_GDPS_WindDir_AGL-10m_LatLon0.15_PT066H.grib2 2026-04-30 04:16 1.3M
20260430T00Z_MSC_GDPS_WindDir_AGL-120m_LatLon0.15_PT066H.grib2 2026-04-30 04:16 1.3M
20260430T00Z_MSC_GDPS_WindDir_AGL-40m_LatLon0.15_PT066H.grib2 2026-04-30 04:16 1.4M
20260430T00Z_MSC_GDPS_WindDir_AGL-80m_LatLon0.15_PT066H.grib2 2026-04-30 04:16 1.4M
20260430T00Z_MSC_GDPS_WindDir_IsbL-0001_LatLon0.15_PT066H.grib2 2026-04-30 04:16 676K
20260430T00Z_MSC_GDPS_WindDir_IsbL-0005_LatLon0.15_PT066H.grib2 2026-04-30 04:16 806K
20260430T00Z_MSC_GDPS_WindDir_IsbL-0010_LatLon0.15_PT066H.grib2 2026-04-30 04:16 837K
20260430T00Z_MSC_GDPS_WindDir_IsbL-0020_LatLon0.15_PT066H.grib2 2026-04-30 04:16 950K
20260430T00Z_MSC_GDPS_WindDir_IsbL-0030_LatLon0.15_PT066H.grib2 2026-04-30 04:16 936K
20260430T00Z_MSC_GDPS_WindDir_IsbL-0050_LatLon0.15_PT066H.grib2 2026-04-30 04:16 947K
20260430T00Z_MSC_GDPS_WindDir_IsbL-0100_LatLon0.15_PT066H.grib2 2026-04-30 04:16 1.0M
20260430T00Z_MSC_GDPS_WindDir_IsbL-0150_LatLon0.15_PT066H.grib2 2026-04-30 04:16 1.0M
20260430T00Z_MSC_GDPS_WindDir_IsbL-0175_LatLon0.15_PT066H.grib2 2026-04-30 04:16 1.0M
20260430T00Z_MSC_GDPS_WindDir_IsbL-0200_LatLon0.15_PT066H.grib2 2026-04-30 04:16 1.1M
20260430T00Z_MSC_GDPS_WindDir_IsbL-0225_LatLon0.15_PT066H.grib2 2026-04-30 04:16 1.1M
20260430T00Z_MSC_GDPS_WindDir_IsbL-0250_LatLon0.15_PT066H.grib2 2026-04-30 04:16 1.1M
20260430T00Z_MSC_GDPS_WindDir_IsbL-0275_LatLon0.15_PT066H.grib2 2026-04-30 04:16 1.2M
20260430T00Z_MSC_GDPS_WindDir_IsbL-0300_LatLon0.15_PT066H.grib2 2026-04-30 04:16 1.2M
20260430T00Z_MSC_GDPS_WindDir_IsbL-0350_LatLon0.15_PT066H.grib2 2026-04-30 04:16 1.2M
20260430T00Z_MSC_GDPS_WindDir_IsbL-0400_LatLon0.15_PT066H.grib2 2026-04-30 04:16 1.3M
20260430T00Z_MSC_GDPS_WindDir_IsbL-0450_LatLon0.15_PT066H.grib2 2026-04-30 04:16 1.3M
20260430T00Z_MSC_GDPS_WindDir_IsbL-0500_LatLon0.15_PT066H.grib2 2026-04-30 04:16 1.3M
20260430T00Z_MSC_GDPS_WindDir_IsbL-0550_LatLon0.15_PT066H.grib2 2026-04-30 04:16 1.4M
20260430T00Z_MSC_GDPS_WindDir_IsbL-0600_LatLon0.15_PT066H.grib2 2026-04-30 04:16 1.4M
20260430T00Z_MSC_GDPS_WindDir_IsbL-0650_LatLon0.15_PT066H.grib2 2026-04-30 04:16 1.5M
20260430T00Z_MSC_GDPS_WindDir_IsbL-0700_LatLon0.15_PT066H.grib2 2026-04-30 04:16 1.6M
20260430T00Z_MSC_GDPS_WindDir_IsbL-0750_LatLon0.15_PT066H.grib2 2026-04-30 04:16 1.7M
20260430T00Z_MSC_GDPS_WindDir_IsbL-0800_LatLon0.15_PT066H.grib2 2026-04-30 04:16 1.8M
20260430T00Z_MSC_GDPS_WindDir_IsbL-0850_LatLon0.15_PT066H.grib2 2026-04-30 04:16 1.9M
20260430T00Z_MSC_GDPS_WindDir_IsbL-0875_LatLon0.15_PT066H.grib2 2026-04-30 04:16 2.0M
20260430T00Z_MSC_GDPS_WindDir_IsbL-0900_LatLon0.15_PT066H.grib2 2026-04-30 04:16 2.0M
20260430T00Z_MSC_GDPS_WindDir_IsbL-0925_LatLon0.15_PT066H.grib2 2026-04-30 04:16 2.0M
20260430T00Z_MSC_GDPS_WindDir_IsbL-0950_LatLon0.15_PT066H.grib2 2026-04-30 04:16 2.0M
20260430T00Z_MSC_GDPS_WindDir_IsbL-0970_LatLon0.15_PT066H.grib2 2026-04-30 04:16 2.0M
20260430T00Z_MSC_GDPS_WindDir_IsbL-0985_LatLon0.15_PT066H.grib2 2026-04-30 04:16 2.0M
20260430T00Z_MSC_GDPS_WindDir_IsbL-1000_LatLon0.15_PT066H.grib2 2026-04-30 04:16 2.1M
20260430T00Z_MSC_GDPS_WindDir_IsbL-1015_LatLon0.15_PT066H.grib2 2026-04-30 04:16 2.0M
20260430T00Z_MSC_GDPS_WindGust-Max_AGL-10m_LatLon0.15_PT066H.grib2 2026-04-30 04:16 2.2M
20260430T00Z_MSC_GDPS_WindGust-Min_AGL-10m_LatLon0.15_PT066H.grib2 2026-04-30 04:16 2.1M
20260430T00Z_MSC_GDPS_WindGust_AGL-10m_LatLon0.15_PT066H.grib2 2026-04-30 04:16 2.1M
20260430T00Z_MSC_GDPS_WindSpeed_AGL-10m_LatLon0.15_PT066H.grib2 2026-04-30 04:16 1.1M
20260430T00Z_MSC_GDPS_WindSpeed_AGL-120m_LatLon0.15_PT066H.grib2 2026-04-30 04:16 1.3M
20260430T00Z_MSC_GDPS_WindSpeed_AGL-40m_LatLon0.15_PT066H.grib2 2026-04-30 04:16 1.2M
20260430T00Z_MSC_GDPS_WindSpeed_AGL-80m_LatLon0.15_PT066H.grib2 2026-04-30 04:16 1.3M
20260430T00Z_MSC_GDPS_WindSpeed_IsbL-0001_LatLon0.15_PT066H.grib2 2026-04-30 04:16 641K
20260430T00Z_MSC_GDPS_WindSpeed_IsbL-0005_LatLon0.15_PT066H.grib2 2026-04-30 04:16 688K
20260430T00Z_MSC_GDPS_WindSpeed_IsbL-0010_LatLon0.15_PT066H.grib2 2026-04-30 04:16 626K
20260430T00Z_MSC_GDPS_WindSpeed_IsbL-0020_LatLon0.15_PT066H.grib2 2026-04-30 04:16 664K
20260430T00Z_MSC_GDPS_WindSpeed_IsbL-0030_LatLon0.15_PT066H.grib2 2026-04-30 04:16 862K
20260430T00Z_MSC_GDPS_WindSpeed_IsbL-0050_LatLon0.15_PT066H.grib2 2026-04-30 04:16 905K
20260430T00Z_MSC_GDPS_WindSpeed_IsbL-0100_LatLon0.15_PT066H.grib2 2026-04-30 04:16 1.1M
20260430T00Z_MSC_GDPS_WindSpeed_IsbL-0150_LatLon0.15_PT066H.grib2 2026-04-30 04:16 1.0M
20260430T00Z_MSC_GDPS_WindSpeed_IsbL-0175_LatLon0.15_PT066H.grib2 2026-04-30 04:16 1.0M
20260430T00Z_MSC_GDPS_WindSpeed_IsbL-0200_LatLon0.15_PT066H.grib2 2026-04-30 04:16 1.1M
20260430T00Z_MSC_GDPS_WindSpeed_IsbL-0225_LatLon0.15_PT066H.grib2 2026-04-30 04:16 1.1M
20260430T00Z_MSC_GDPS_WindSpeed_IsbL-0250_LatLon0.15_PT066H.grib2 2026-04-30 04:16 1.1M
20260430T00Z_MSC_GDPS_WindSpeed_IsbL-0275_LatLon0.15_PT066H.grib2 2026-04-30 04:16 1.1M
20260430T00Z_MSC_GDPS_WindSpeed_IsbL-0300_LatLon0.15_PT066H.grib2 2026-04-30 04:16 1.1M
20260430T00Z_MSC_GDPS_WindSpeed_IsbL-0350_LatLon0.15_PT066H.grib2 2026-04-30 04:16 1.1M
20260430T00Z_MSC_GDPS_WindSpeed_IsbL-0400_LatLon0.15_PT066H.grib2 2026-04-30 04:16 1.1M
20260430T00Z_MSC_GDPS_WindSpeed_IsbL-0450_LatLon0.15_PT066H.grib2 2026-04-30 04:16 1.1M
20260430T00Z_MSC_GDPS_WindSpeed_IsbL-0500_LatLon0.15_PT066H.grib2 2026-04-30 04:16 1.1M
20260430T00Z_MSC_GDPS_WindSpeed_IsbL-0550_LatLon0.15_PT066H.grib2 2026-04-30 04:16 1.1M
20260430T00Z_MSC_GDPS_WindSpeed_IsbL-0600_LatLon0.15_PT066H.grib2 2026-04-30 04:16 1.1M
20260430T00Z_MSC_GDPS_WindSpeed_IsbL-0650_LatLon0.15_PT066H.grib2 2026-04-30 04:16 1.5M
20260430T00Z_MSC_GDPS_WindSpeed_IsbL-0700_LatLon0.15_PT066H.grib2 2026-04-30 04:16 1.5M
20260430T00Z_MSC_GDPS_WindSpeed_IsbL-0750_LatLon0.15_PT066H.grib2 2026-04-30 04:16 1.6M
20260430T00Z_MSC_GDPS_WindSpeed_IsbL-0800_LatLon0.15_PT066H.grib2 2026-04-30 04:16 1.7M
20260430T00Z_MSC_GDPS_WindSpeed_IsbL-0850_LatLon0.15_PT066H.grib2 2026-04-30 04:16 1.8M
20260430T00Z_MSC_GDPS_WindSpeed_IsbL-0875_LatLon0.15_PT066H.grib2 2026-04-30 04:16 1.8M
20260430T00Z_MSC_GDPS_WindSpeed_IsbL-0900_LatLon0.15_PT066H.grib2 2026-04-30 04:16 1.8M
20260430T00Z_MSC_GDPS_WindSpeed_IsbL-0925_LatLon0.15_PT066H.grib2 2026-04-30 04:16 1.8M
20260430T00Z_MSC_GDPS_WindSpeed_IsbL-0950_LatLon0.15_PT066H.grib2 2026-04-30 04:16 1.8M
20260430T00Z_MSC_GDPS_WindSpeed_IsbL-0970_LatLon0.15_PT066H.grib2 2026-04-30 04:16 1.9M
20260430T00Z_MSC_GDPS_WindSpeed_IsbL-0985_LatLon0.15_PT066H.grib2 2026-04-30 04:16 1.9M
20260430T00Z_MSC_GDPS_WindSpeed_IsbL-1000_LatLon0.15_PT066H.grib2 2026-04-30 04:16 1.9M
20260430T00Z_MSC_GDPS_WindSpeed_IsbL-1015_LatLon0.15_PT066H.grib2 2026-04-30 04:16 1.8M
20260430T00Z_MSC_GDPS_WindU_AGL-10m_LatLon0.15_PT066H.grib2 2026-04-30 04:16 1.3M
20260430T00Z_MSC_GDPS_WindU_AGL-120m_LatLon0.15_PT066H.grib2 2026-04-30 04:16 1.0M
20260430T00Z_MSC_GDPS_WindU_AGL-40m_LatLon0.15_PT066H.grib2 2026-04-30 04:16 1.0M
20260430T00Z_MSC_GDPS_WindU_AGL-80m_LatLon0.15_PT066H.grib2 2026-04-30 04:16 1.0M
20260430T00Z_MSC_GDPS_WindU_IsbL-0001_LatLon0.15_PT066H.grib2 2026-04-30 04:16 499K
20260430T00Z_MSC_GDPS_WindU_IsbL-0005_LatLon0.15_PT066H.grib2 2026-04-30 04:16 689K
20260430T00Z_MSC_GDPS_WindU_IsbL-0010_LatLon0.15_PT066H.grib2 2026-04-30 04:16 702K
20260430T00Z_MSC_GDPS_WindU_IsbL-0020_LatLon0.15_PT066H.grib2 2026-04-30 04:16 732K
20260430T00Z_MSC_GDPS_WindU_IsbL-0030_LatLon0.15_PT066H.grib2 2026-04-30 04:16 736K
20260430T00Z_MSC_GDPS_WindU_IsbL-0050_LatLon0.15_PT066H.grib2 2026-04-30 04:16 695K
20260430T00Z_MSC_GDPS_WindU_IsbL-0100_LatLon0.15_PT066H.grib2 2026-04-30 04:16 928K
20260430T00Z_MSC_GDPS_WindU_IsbL-0150_LatLon0.15_PT066H.grib2 2026-04-30 04:16 1.0M
20260430T00Z_MSC_GDPS_WindU_IsbL-0175_LatLon0.15_PT066H.grib2 2026-04-30 04:16 817K
20260430T00Z_MSC_GDPS_WindU_IsbL-0200_LatLon0.15_PT066H.grib2 2026-04-30 04:16 843K
20260430T00Z_MSC_GDPS_WindU_IsbL-0225_LatLon0.15_PT066H.grib2 2026-04-30 04:16 853K
20260430T00Z_MSC_GDPS_WindU_IsbL-0250_LatLon0.15_PT066H.grib2 2026-04-30 04:16 856K
20260430T00Z_MSC_GDPS_WindU_IsbL-0275_LatLon0.15_PT066H.grib2 2026-04-30 04:16 885K
20260430T00Z_MSC_GDPS_WindU_IsbL-0300_LatLon0.15_PT066H.grib2 2026-04-30 04:16 876K
20260430T00Z_MSC_GDPS_WindU_IsbL-0350_LatLon0.15_PT066H.grib2 2026-04-30 04:16 891K
20260430T00Z_MSC_GDPS_WindU_IsbL-0400_LatLon0.15_PT066H.grib2 2026-04-30 04:16 892K
20260430T00Z_MSC_GDPS_WindU_IsbL-0450_LatLon0.15_PT066H.grib2 2026-04-30 04:16 1.1M
20260430T00Z_MSC_GDPS_WindU_IsbL-0500_LatLon0.15_PT066H.grib2 2026-04-30 04:16 1.1M
20260430T00Z_MSC_GDPS_WindU_IsbL-0550_LatLon0.15_PT066H.grib2 2026-04-30 04:16 1.1M
20260430T00Z_MSC_GDPS_WindU_IsbL-0600_LatLon0.15_PT066H.grib2 2026-04-30 04:16 1.2M
20260430T00Z_MSC_GDPS_WindU_IsbL-0650_LatLon0.15_PT066H.grib2 2026-04-30 04:16 1.2M
20260430T00Z_MSC_GDPS_WindU_IsbL-0700_LatLon0.15_PT066H.grib2 2026-04-30 04:16 1.2M
20260430T00Z_MSC_GDPS_WindU_IsbL-0750_LatLon0.15_PT066H.grib2 2026-04-30 04:16 1.3M
20260430T00Z_MSC_GDPS_WindU_IsbL-0800_LatLon0.15_PT066H.grib2 2026-04-30 04:16 1.4M
20260430T00Z_MSC_GDPS_WindU_IsbL-0850_LatLon0.15_PT066H.grib2 2026-04-30 04:16 1.4M
20260430T00Z_MSC_GDPS_WindU_IsbL-0875_LatLon0.15_PT066H.grib2 2026-04-30 04:16 1.5M
20260430T00Z_MSC_GDPS_WindU_IsbL-0900_LatLon0.15_PT066H.grib2 2026-04-30 04:16 1.5M
20260430T00Z_MSC_GDPS_WindU_IsbL-0925_LatLon0.15_PT066H.grib2 2026-04-30 04:16 1.5M
20260430T00Z_MSC_GDPS_WindU_IsbL-0950_LatLon0.15_PT066H.grib2 2026-04-30 04:16 1.4M
20260430T00Z_MSC_GDPS_WindU_IsbL-0970_LatLon0.15_PT066H.grib2 2026-04-30 04:16 1.4M
20260430T00Z_MSC_GDPS_WindU_IsbL-0985_LatLon0.15_PT066H.grib2 2026-04-30 04:16 1.4M
20260430T00Z_MSC_GDPS_WindU_IsbL-1000_LatLon0.15_PT066H.grib2 2026-04-30 04:16 1.4M
20260430T00Z_MSC_GDPS_WindU_IsbL-1015_LatLon0.15_PT066H.grib2 2026-04-30 04:16 1.4M
20260430T00Z_MSC_GDPS_WindV_AGL-10m_LatLon0.15_PT066H.grib2 2026-04-30 04:16 1.3M
20260430T00Z_MSC_GDPS_WindV_AGL-120m_LatLon0.15_PT066H.grib2 2026-04-30 04:16 1.0M
20260430T00Z_MSC_GDPS_WindV_AGL-40m_LatLon0.15_PT066H.grib2 2026-04-30 04:16 1.0M
20260430T00Z_MSC_GDPS_WindV_AGL-80m_LatLon0.15_PT066H.grib2 2026-04-30 04:16 1.0M
20260430T00Z_MSC_GDPS_WindV_IsbL-0001_LatLon0.15_PT066H.grib2 2026-04-30 04:16 778K
20260430T00Z_MSC_GDPS_WindV_IsbL-0005_LatLon0.15_PT066H.grib2 2026-04-30 04:16 762K
20260430T00Z_MSC_GDPS_WindV_IsbL-0010_LatLon0.15_PT066H.grib2 2026-04-30 04:16 794K
20260430T00Z_MSC_GDPS_WindV_IsbL-0020_LatLon0.15_PT066H.grib2 2026-04-30 04:16 850K
20260430T00Z_MSC_GDPS_WindV_IsbL-0030_LatLon0.15_PT066H.grib2 2026-04-30 04:16 851K
20260430T00Z_MSC_GDPS_WindV_IsbL-0050_LatLon0.15_PT066H.grib2 2026-04-30 04:16 1.0M
20260430T00Z_MSC_GDPS_WindV_IsbL-0100_LatLon0.15_PT066H.grib2 2026-04-30 04:16 1.1M
20260430T00Z_MSC_GDPS_WindV_IsbL-0150_LatLon0.15_PT066H.grib2 2026-04-30 04:16 1.0M
20260430T00Z_MSC_GDPS_WindV_IsbL-0175_LatLon0.15_PT066H.grib2 2026-04-30 04:16 1.0M
20260430T00Z_MSC_GDPS_WindV_IsbL-0200_LatLon0.15_PT066H.grib2 2026-04-30 04:16 843K
20260430T00Z_MSC_GDPS_WindV_IsbL-0225_LatLon0.15_PT066H.grib2 2026-04-30 04:16 849K
20260430T00Z_MSC_GDPS_WindV_IsbL-0250_LatLon0.15_PT066H.grib2 2026-04-30 04:16 908K
20260430T00Z_MSC_GDPS_WindV_IsbL-0275_LatLon0.15_PT066H.grib2 2026-04-30 04:16 934K
20260430T00Z_MSC_GDPS_WindV_IsbL-0300_LatLon0.15_PT066H.grib2 2026-04-30 04:16 923K
20260430T00Z_MSC_GDPS_WindV_IsbL-0350_LatLon0.15_PT066H.grib2 2026-04-30 04:16 878K
20260430T00Z_MSC_GDPS_WindV_IsbL-0400_LatLon0.15_PT066H.grib2 2026-04-30 04:16 881K
20260430T00Z_MSC_GDPS_WindV_IsbL-0450_LatLon0.15_PT066H.grib2 2026-04-30 04:16 1.1M
20260430T00Z_MSC_GDPS_WindV_IsbL-0500_LatLon0.15_PT066H.grib2 2026-04-30 04:16 1.1M
20260430T00Z_MSC_GDPS_WindV_IsbL-0550_LatLon0.15_PT066H.grib2 2026-04-30 04:16 1.1M
20260430T00Z_MSC_GDPS_WindV_IsbL-0600_LatLon0.15_PT066H.grib2 2026-04-30 04:16 1.1M
20260430T00Z_MSC_GDPS_WindV_IsbL-0650_LatLon0.15_PT066H.grib2 2026-04-30 04:16 1.2M
20260430T00Z_MSC_GDPS_WindV_IsbL-0700_LatLon0.15_PT066H.grib2 2026-04-30 04:16 1.2M
20260430T00Z_MSC_GDPS_WindV_IsbL-0750_LatLon0.15_PT066H.grib2 2026-04-30 04:16 1.3M
20260430T00Z_MSC_GDPS_WindV_IsbL-0800_LatLon0.15_PT066H.grib2 2026-04-30 04:16 1.3M
20260430T00Z_MSC_GDPS_WindV_IsbL-0850_LatLon0.15_PT066H.grib2 2026-04-30 04:16 1.4M
20260430T00Z_MSC_GDPS_WindV_IsbL-0875_LatLon0.15_PT066H.grib2 2026-04-30 04:16 1.5M
20260430T00Z_MSC_GDPS_WindV_IsbL-0900_LatLon0.15_PT066H.grib2 2026-04-30 04:16 1.5M
20260430T00Z_MSC_GDPS_WindV_IsbL-0925_LatLon0.15_PT066H.grib2 2026-04-30 04:16 1.5M
20260430T00Z_MSC_GDPS_WindV_IsbL-0950_LatLon0.15_PT066H.grib2 2026-04-30 04:16 1.4M
20260430T00Z_MSC_GDPS_WindV_IsbL-0970_LatLon0.15_PT066H.grib2 2026-04-30 04:16 1.4M
20260430T00Z_MSC_GDPS_WindV_IsbL-0985_LatLon0.15_PT066H.grib2 2026-04-30 04:16 1.4M
20260430T00Z_MSC_GDPS_WindV_IsbL-1000_LatLon0.15_PT066H.grib2 2026-04-30 04:16 1.4M
20260430T00Z_MSC_GDPS_WindV_IsbL-1015_LatLon0.15_PT066H.grib2 2026-04-30 04:16 1.3M